This is the latest recevied weather packets stored in our database for station/object K6GMW. If no packets are shown the sender has not sent any weather packets the latest 10 day(s).
| Time | Temp. | Humidity | Pressure | Rain* | Wind** | Luminosity | Snow |
|---|---|---|---|---|---|---|---|
| 1777834458 | 25.56° C | 39% | 1021.2 hPa | 0 mm | - | 980 W/m² | - |
| 1777834157 | 25.56° C | 43% | 1020.9 hPa | 0 mm | - | 988 W/m² | - |
| 1777833854 | 25.56° C | 39% | 1021.2 hPa | 0 mm | - | 987 W/m² | - |
| 1777833550 | 25.56° C | 42% | 1021.3 hPa | 0 mm | - | 998 W/m² | - |
| 1777833247 | 25.56° C | 41% | 1021.2 hPa | 0 mm | - | 1003 W/m² | - |
| 1777832944 | 25.56° C | 43% | 1021.6 hPa | 0 mm | - | 1005 W/m² | - |
| 1777832643 | 25.56° C | 44% | 1021.7 hPa | 0 mm | - | 1007 W/m² | - |
| 1777832340 | 25.56° C | 43% | 1021.9 hPa | 0 mm | - | 1004 W/m² | - |
| 1777832036 | 25° C | 40% | 1021.7 hPa | 0 mm | - | 1007 W/m² | - |
| 1777831733 | 25.56° C | 38% | 1021.9 hPa | 0 mm | - | 1003 W/m² | - |
| 1777831431 | 25.56° C | 43% | 1021.7 hPa | 0 mm | - | 1006 W/m² | - |
| 1777831127 | 25° C | 44% | 1022 hPa | 0 mm | - | 1007 W/m² | - |
| 1777830825 | 25° C | 44% | 1022.1 hPa | 0 mm | - | 1008 W/m² | - |
| 1777830521 | 25° C | 41% | 1022.2 hPa | 0 mm | - | 1007 W/m² | - |
| 1777830220 | 25° C | 43% | 1022.3 hPa | 0 mm | - | 1005 W/m² | - |
| 1777829919 | 25° C | 45% | 1022.4 hPa | 0 mm | - | 1000 W/m² | - |
| 1777829616 | 25° C | 43% | 1022.4 hPa | 0 mm | - | 990 W/m² | - |
| 1777829313 | 25° C | 45% | 1022.5 hPa | 0 mm | - | 993 W/m² | - |
| 1777829011 | 24.44° C | 42% | 1022.4 hPa | 0 mm | - | 989 W/m² | - |
| 1777828707 | 25° C | 43% | 1022.7 hPa | 0 mm | - | 985 W/m² | - |
| 1777828404 | 24.44° C | 42% | 1022.5 hPa | 0 mm | - | 979 W/m² | - |
| 1777828101 | 24.44° C | 44% | 1022.7 hPa | 0 mm | - | 974 W/m² | - |
| 1777827797 | 24.44° C | 45% | 1022.7 hPa | 0 mm | - | 967 W/m² | - |
| 1777827494 | 24.44° C | 44% | 1022.7 hPa | 0 mm | - | 963 W/m² | - |
| 1777827192 | 23.89° C | 49% | 1022.8 hPa | 0 mm | - | 956 W/m² | - |
* Rain latest hour (hover to see other rain measurements)
** Current wind speed in m/s (hover to see current wind gust speed)